Regional Weather Roundup
Issued by NWS

Home | Current Version | Previous Version | Graphics & Text | Print | Product List | Glossary On
Versions: 1 2 3 4 5 6 7 8 9 10 11 12 13 14 15 16 17 18 19 20 21 22 23 24 25 26 27 28
000
ASUS45 KCYS 242110
RWRWY

WYOMING REGIONAL WEATHER ROUNDUP
NATIONAL WEATHER SERVICE CHEYENNE WY
300 PM MDT SUN JUL 24 2016

NOTE:  "FAIR" INDICATES FEW OR NO CLOUDS BELOW 12,000 FEET
WITH NO SIGNIFICANT WEATHER AND/OR OBSTRUCTIONS TO VISIBILITY.

WYZ001-242200-
YELLOWSTONE NATIONAL PARK

CITY           SKY/WX    TMP DP  RH WIND       PRES   REMARKS
LK YELLOWSTONE   N/A     73  23  15 VRB7G16   30.35F
W YELLOWSTONE  NOT AVBL

$$
WYZ002>013-054>058-071-098>099-242200-
NORTHERN WYOMING

CITY           SKY/WX    TMP DP  RH WIND       PRES   REMARKS
JACKSON        SUNNY     81  27  13 SE7G17    30.24F
CODY           FAIR      82  37  20 E8        30.13F
GREYBULL       FAIR      87  34  15 VRB3      30.06F
WORLAND        FAIR      89  37  16 NE7       30.07F
SHERIDAN       FAIR      90  40  17 SE10      30.07F
BUFFALO        FAIR      86  41  20 SE15G23   30.14F
GILLETTE       FAIR      86  43  22 SE12G21   30.12F
HULETT         FAIR      82  41  23 S3        30.15S
NEWCASTLE      FAIR      84  36  17 S15G25    30.16F

$$
WYZ014>020-022>026-101>103-242200-
CENTRAL WYOMING

CITY           SKY/WX    TMP DP  RH WIND       PRES   REMARKS
BIG PINEY      FAIR      82  20  10 MISG      30.27F
PINEDALE       FAIR      81  27  13 N9G18     30.29F
DUBOIS         FAIR      79  14   8 CALM      30.27S
LANDER         FAIR      87  36  16 NE6       30.17F
RIVERTON       FAIR      86  31  13 E8        30.16F
CASPER         FAIR      84  35  17 VRB6      30.18S
DOUGLAS          N/A    N/A N/A N/A MISG      30.15F

$$
WYZ021-027>030-104>119-242200-
SOUTHERN WYOMING

CITY           SKY/WX    TMP DP  RH WIND       PRES   REMARKS
EVANSTON       FAIR      86  20   9 W12G22    30.29S
KEMMERER         N/A     82  19   9 W14G23    30.30F
FORT BRIDGER   CLEAR     88  19   8 SW14G25   30.30S
ROCK SPRINGS   FAIR      87  15   7 SW16G24   30.24F
DIXON          FAIR      88  33  14 W8        30.25S
RAWLINS        FAIR      87  22   9 W12G20    30.26F
SARATOGA       FAIR      82  27  13 N12G17    30.27F
LARAMIE        PTSUNNY   78  31  17 E7        30.28F
CHEYENNE       TSTM      72  53  51 W20G26    30.28R
TORRINGTON     FAIR      87  52  29 E21G28    30.11S
PINE BLUFFS    FAIR      82  55  39 E13       30.19S

$$




USA.gov is the U.S. government's official web portal to all federal, state and local government web resources and services.